This demonstration page uses our WeatherBlox Daily Observations layout. Learn more.

Left ArrowRight Arrow

38.20091, -84.87328

Hourly Observations for September 17, 2016

Temp ( °F °C ) Dew Point ( °F °C ) Humidity (%) Winds ( mph kmh ) Pressure ( in mb ) Visibility ( mi km ) Precip ( " mm )
12:53 am 00:53 Clear 74 23.3 66 18.9 76 76 S 5 7 30.01 1016 10 16 0.00 0.00
1:53 am 01:53 Mostly Cloudy 74 23.3 67 19.4 79 79 SSE 7 11 30.01 1016 10 16 0.00 0.00
2:53 am 02:53 Mostly Cloudy 75 23.9 67 19.4 76 76 SSE 7 11 30.01 1016 10 16 0.00 0.00
3:53 am 03:53 Clear 73 22.8 67 19.4 81 81 S 5 7 30.00 1016 10 16 0.00 0.03
4:53 am 04:53 Clear 74 23.3 65 18.3 74 74 S 10 17 30.00 1016 10 16 0.00 0.00
5:53 am 05:53 Clear 74 23.3 65 18.3 74 74 S 8 13 30.01 1016 10 16 0.00 0.00
6:53 am 06:53 Mostly Cloudy 75 23.9 65 18.3 71 71 S 10 17 30.01 1016 10 16 0.00 0.00
7:53 am 07:53 Partly Cloudy 75 23.9 64 17.8 69 69 S 8 13 30.02 1017 10 16 0.00 0.00
8:53 am 08:53 Sunny 75 23.9 63 17.2 66 66 S 14 22 30.02 1017 10 16 0.00 0.00
9:53 am 09:53 Sunny 79 26.1 63 17.2 58 58 S 15 24 30.03 1017 10 16 0.00 0.00
10:53 am 10:53 Mostly Cloudy 79 26.1 63 17.2 58 58 SSW 15 24 30.04 1017 10 16 0.00 0.00
11:53 am 11:53 Cloudy with Light Rain 75 23.9 66 18.9 74 74 SW 14 22 30.04 1017 9 14 0.00 0.03
12:53 pm 12:53 Cloudy with Rain 72 22.2 67 19.4 84 84 SSW 16 26 30.05 1018 3 5 0.06 1.52
1:53 pm 13:53 Cloudy with Rain 70 21.1 66 18.9 87 87 S 16 26 30.04 1017 2 3 0.18 4.57
2:07 pm 14:07 Cloudy with Light Rain 70 21.1 67 19.4 90 90 S 10 17 30.03 1017 6 10 0.02 0.51
2:31 pm 14:31 Cloudy with Heavy Rain 70 21.1 67 19.4 90 90 S 14 22 30.03 1017 2 3 0.09 2.29
2:48 pm 14:48 Cloudy with Light Rain 72 22 66 19 83 83 S 12 19 30.03 1017 3 5 0.15 3.81
2:53 pm 14:53 Cloudy with Light Rain 71 21.7 67 19.4 87 87 S 12 19 30.03 1017 4 6 0.15 3.81
3:53 pm 15:53 Cloudy with Rain 71 21.7 68 20 90 90 SSW 10 17 30.02 1017 2 2 0.06 1.52
4:02 pm 16:02 Cloudy with Rain 71 21.7 67 19.4 87 87 SSW 8 13 30.00 1016 2 3 0.02 0.51
4:07 pm 16:07 Cloudy with Light Rain 71 21.7 68 20 90 90 SSW 7 11 30.00 1016 3 5 0.02 0.51
4:25 pm 16:25 Cloudy with Rain 71 21.7 68 20 90 90 SW 3 6 30.00 1016 2 3 0.04 1.02
4:41 pm 16:41 Cloudy with Light Rain 71 21.7 68 20 90 90 SW 6 9 30.00 1016 5 8 0.05 1.27
4:50 pm 16:50 Cloudy 72 22 68 20 88 88 SSW 6 9 30.00 1016 8 13 0.05 1.27
4:53 pm 16:53 Cloudy 71 21.7 68 20 90 90 SW 5 7 30.01 1016 8 13 0.05 1.27
5:06 pm 17:06 Cloudy 72 22.2 68 20 87 87 S 5 7 30.00 1016 8 13 0.00 0.00
5:39 pm 17:39 Cloudy 72 22.2 68 20 87 87 SSW 5 7 30.00 1016 10 16 0.00 0.00
5:53 pm 17:53 Cloudy 73 22.8 68 20 84 84 SSW 3 6 30.00 1016 9 14 0.00 0.00
6:01 pm 18:01 Cloudy 73 22.8 69 20.6 87 87 S 3 6 30.00 1016 9 14 0.00 0.00
6:53 pm 18:53 Cloudy 73 22.8 69 20.6 87 87 S 5 7 30.00 1016 9 14 0.00 0.00
7:53 pm 19:53 Cloudy 73 22.8 69 20.6 87 87 S 6 9 30.00 1016 10 16 0.00 0.00
8:53 pm 20:53 Cloudy 72 22.2 69 20.6 91 91 S 6 9 30.01 1016 8 13 0.00 0.00
9:25 pm 21:25 Cloudy 72 22.2 69 20.6 91 91 SSW 7 11 30.00 1016 10 16 0.00 0.00
9:53 pm 21:53 Cloudy 72 22.2 68 20 87 87 SSW 6 9 30.02 1017 10 16 0.00 0.00
10:45 pm 22:45 Cloudy 72 22.2 68 20 87 87 Calm 30.00 1016 10 16 0.00 0.00
10:53 pm 22:53 Cloudy 72 22.2 68 20 87 87 SW 3 6 30.02 1017 10 16 0.00 0.00
11:12 pm 23:12 Cloudy 72 22.2 68 20 87 87 Calm 30.00 1016 10 16 0.00 0.00
11:51 pm 23:51 Cloudy 72 22 68 20 88 88 SSW 5 7 30.00 1016 10 16 0.00 0.00
11:53 pm 23:53 Cloudy 72 22.2 68 20 87 87 SW 5 7 30.02 1017 10 16 0.00 0.00

Powered by AerisWeather